sat.trackr.live / text

‹ back to catalog

HULIANWANG DIGUI-56

NORAD 65113 · 2025-168H

PAYLOAD ACTIVE UNKNOWN

§ Identity

Operator
Country
PRC
Launch date
2025-08-04
Launch site
WSC
Launch vehicle
Mass (kg)
RCS (m²)

External: N2YO · Heavens-Above · Gunter

§ Orbital elements

Epoch: 2026-05-25T04:21:05.107104Z

Period
108.33 min
Inclination
49.9998°
Eccentricity
0.0012069
Mean motion
13.29317586 rev/d
Perigee alt
1,140.3 km
Apogee alt
1,158.4 km
Semi-major
7,527.5 km
B*
9.6330e-5
RAAN
47.9272°
Arg perigee
44.1746°
Mean anomaly
316.0088°
Rev number
3,963

§ Raw data

HULIANWANG DIGUI-561 65113U 25168H   26145.18130911 -.00000079  00000+0  96330-4 0  99912 65113  49.9998  47.9272 0012069  44.1746 316.0088 13.29317586 39633

JSON: /api/v1/satellites/65113 · /tle

For live sub-satellite position, see the globe view (requires WebGL).

§ Visibility from observer

Set your observer location to see the next 7 days of passes ≥ 10°. The values pass through the URL so the page stays shareable.

No JS? Fill the form by hand. The geolocation button needs JavaScript.